CPA812 VHHH-KBOS

Flight info

Callsign CPA812
Flight time N/A
Altitude 33000
Route DALOL V631 ENVAR M750 IMPAL Y755 CARDS DCT HIOTI DCT CBE Y121 SWING Y88 DAIGO Y889 OATIS R580 ONEIL DCT ECOMI DCT NAYLD/N0492F350 DCT MCG DCT ORT NCA15 EMSOW DCT 62N130W 60N120W/N0486F370 58N112W DCT TULAG Q963 PETMA DCT KENRU DCT 5330N10000W 49N090W DCT SSM DCT NOTAP DCT YEE DCT TULEG DCT PONCT JFUND2
Aircraft A35K/H-SDE2E3GHIJ3J4J5LM1ORWXY/LB1D1

Departure

Time N/A
Airport Hong Kong International Airport (VHHH)

Arrival

Time 2026-05-05 13:03
Airport Boston Logan International Airport (KBOS)
Time Latitude Longitude Altitude Speed Heading
2026-05-05 12:03 44.47871 -79.39882 36583 ft 533 kts 116°
2026-05-05 12:03 44.46587 -79.35016 36586 ft 533 kts 116°
2026-05-05 12:04 44.44013 -79.25291 36592 ft 533 kts 116°
2026-05-05 12:04 44.41433 -79.15579 36593 ft 533 kts 116°
2026-05-05 12:05 44.39280 -79.07512 36588 ft 533 kts 116°
2026-05-05 12:05 44.36678 -78.97800 36585 ft 535 kts 116°
2026-05-05 12:06 44.34060 -78.88063 36587 ft 535 kts 116°
2026-05-05 12:06 44.31436 -78.78336 36582 ft 535 kts 116°
2026-05-05 12:07 44.28803 -78.68620 36593 ft 535 kts 116°
2026-05-05 12:07 44.26162 -78.58918 36613 ft 535 kts 116°
2026-05-05 12:08 44.23510 -78.49211 36611 ft 535 kts 116°
2026-05-05 12:08 44.20851 -78.39514 36611 ft 535 kts 116°
2026-05-05 12:09 44.18185 -78.29832 36613 ft 535 kts 116°
2026-05-05 12:09 44.15510 -78.20156 36592 ft 535 kts 116°
2026-05-05 12:10 44.12826 -78.10490 36613 ft 535 kts 116°
2026-05-05 12:10 44.10137 -78.00841 36615 ft 535 kts 116°
2026-05-05 12:11 44.07440 -77.91203 36612 ft 534 kts 116°
2026-05-05 12:11 44.04740 -77.81590 36617 ft 534 kts 116°
2026-05-05 12:12 44.02033 -77.71985 36635 ft 533 kts 116°
2026-05-05 12:12 43.99336 -77.62458 36654 ft 533 kts 116°
2026-05-05 12:13 43.96615 -77.52886 36647 ft 532 kts 116°
2026-05-05 12:13 43.93894 -77.43348 36646 ft 532 kts 116°
2026-05-05 12:14 43.91164 -77.33813 36646 ft 532 kts 116°
2026-05-05 12:14 43.88430 -77.24301 36644 ft 531 kts 116°
2026-05-05 12:15 43.85702 -77.14842 36644 ft 527 kts 116°
2026-05-05 12:15 43.82976 -77.05430 36650 ft 525 kts 116°
2026-05-05 12:16 43.80248 -76.96048 36650 ft 525 kts 116°
2026-05-05 12:16 43.77513 -76.86677 36655 ft 525 kts 116°
2026-05-05 12:17 43.74949 -76.77919 36660 ft 522 kts 116°
2026-05-05 12:17 43.72224 -76.68722 36661 ft 519 kts 118°
2026-05-05 12:18 43.69265 -76.59627 36668 ft 519 kts 119°
2026-05-05 12:18 43.66304 -76.50542 36669 ft 519 kts 118°
2026-05-05 12:19 43.63351 -76.41458 36678 ft 518 kts 118°
2026-05-05 12:19 43.60399 -76.32390 36677 ft 518 kts 118°
2026-05-05 12:20 43.57443 -76.23335 36694 ft 517 kts 118°
2026-05-05 12:20 43.54482 -76.14295 36664 ft 517 kts 118°
2026-05-05 12:21 43.51521 -76.05283 36693 ft 516 kts 118°
2026-05-05 12:21 43.48550 -75.96271 36691 ft 517 kts 118°
2026-05-05 12:22 43.45574 -75.87276 36708 ft 516 kts 118°
2026-05-05 12:22 43.42591 -75.78288 36715 ft 516 kts 118°
2026-05-05 12:23 43.39601 -75.69309 36747 ft 517 kts 118°
2026-05-05 12:23 43.36602 -75.60334 36762 ft 517 kts 118°
2026-05-05 12:24 43.33595 -75.51363 36772 ft 517 kts 118°
2026-05-05 12:24 43.30582 -75.42403 36771 ft 517 kts 118°
2026-05-05 12:25 43.27562 -75.33454 36759 ft 516 kts 118°
2026-05-05 12:25 43.24540 -75.24532 36775 ft 515 kts 118°
2026-05-05 12:26 43.21517 -75.15630 36774 ft 515 kts 118°
2026-05-05 12:26 43.18504 -75.06789 36777 ft 515 kts 118°
2026-05-05 12:27 43.15467 -74.97909 36775 ft 515 kts 118°
2026-05-05 12:27 43.12427 -74.89045 36777 ft 514 kts 118°
2026-05-05 12:28 43.09379 -74.80187 36774 ft 514 kts 118°
2026-05-05 12:28 43.06322 -74.71334 36783 ft 514 kts 118°
2026-05-05 12:29 43.03264 -74.62504 36788 ft 514 kts 118°
2026-05-05 12:29 43.00195 -74.53674 36788 ft 514 kts 118°
2026-05-05 12:30 42.97123 -74.44859 36793 ft 514 kts 118°
2026-05-05 12:30 42.94041 -74.36048 36786 ft 514 kts 118°
2026-05-05 12:31 42.90960 -74.27265 36792 ft 513 kts 118°
2026-05-05 12:31 42.87877 -74.18504 36800 ft 513 kts 118°
2026-05-05 12:32 42.84786 -74.09751 36798 ft 512 kts 118°
2026-05-05 12:32 42.81689 -74.01005 36837 ft 513 kts 118°
2026-05-05 12:33 42.78588 -73.92276 36843 ft 511 kts 118°
2026-05-05 12:33 42.75681 -73.83440 36843 ft 513 kts 110°
2026-05-05 12:34 42.74856 -73.78717 36843 ft 515 kts 99°
2026-05-05 12:34 42.74607 -73.73853 36837 ft 516 kts 91°
2026-05-05 12:34 42.74554 -73.64150 36819 ft 517 kts 91°
2026-05-05 12:35 42.74499 -73.54390 36830 ft 516 kts 91°
2026-05-05 12:35 42.74422 -73.44637 36851 ft 516 kts 91°
2026-05-05 12:36 42.74333 -73.34885 36793 ft 512 kts 91°
2026-05-05 12:36 42.74286 -73.30072 36099 ft 509 kts 91°
2026-05-05 12:36 42.74235 -73.25210 34872 ft 519 kts 91°
2026-05-05 12:37 42.74181 -73.20268 33806 ft 525 kts 92°
2026-05-05 12:37 42.74125 -73.15296 32672 ft 528 kts 92°
2026-05-05 12:37 42.73918 -73.10300 31445 ft 530 kts 98°
2026-05-05 12:37 42.73403 -73.05319 30270 ft 533 kts 100°
2026-05-05 12:38 42.72823 -73.00338 29173 ft 533 kts 100°
2026-05-05 12:38 42.72242 -72.95391 28439 ft 526 kts 101°
2026-05-05 12:38 42.71670 -72.90505 27720 ft 520 kts 101°
2026-05-05 12:38 42.71104 -72.85679 27019 ft 515 kts 101°
2026-05-05 12:39 42.70544 -72.80898 26340 ft 509 kts 101°
2026-05-05 12:39 42.69988 -72.76171 25692 ft 504 kts 101°
2026-05-05 12:39 42.69435 -72.71491 24995 ft 500 kts 101°
2026-05-05 12:39 42.68887 -72.66854 24361 ft 495 kts 102°
2026-05-05 12:40 42.68345 -72.62283 23999 ft 484 kts 102°
2026-05-05 12:40 42.67810 -72.57813 23606 ft 473 kts 102°
2026-05-05 12:40 42.67281 -72.53462 23340 ft 460 kts 102°
2026-05-05 12:40 42.66772 -72.49299 23071 ft 447 kts 102°
2026-05-05 12:41 42.66270 -72.45195 22796 ft 435 kts 103°
2026-05-05 12:41 42.65780 -72.41195 22483 ft 424 kts 103°
2026-05-05 12:41 42.65296 -72.37269 21980 ft 419 kts 103°
2026-05-05 12:41 42.64816 -72.33387 21429 ft 416 kts 103°
2026-05-05 12:42 42.64344 -72.29529 20903 ft 413 kts 103°
2026-05-05 12:42 42.63899 -72.25691 20345 ft 410 kts 102°
2026-05-05 12:42 42.63460 -72.21874 19824 ft 407 kts 103°
2026-05-05 12:42 42.63024 -72.18097 19283 ft 404 kts 103°
2026-05-05 12:43 42.62586 -72.14338 18750 ft 401 kts 103°
2026-05-05 12:43 42.62151 -72.10616 18281 ft 397 kts 103°
2026-05-05 12:43 42.61718 -72.06929 17786 ft 393 kts 103°
2026-05-05 12:43 42.61289 -72.03286 17326 ft 390 kts 103°
2026-05-05 12:44 42.60852 -71.99661 16885 ft 388 kts 103°
2026-05-05 12:44 42.60401 -71.96061 16447 ft 386 kts 103°
2026-05-05 12:44 42.59949 -71.92467 16028 ft 384 kts 103°
2026-05-05 12:44 42.59502 -71.88900 15624 ft 383 kts 103°
2026-05-05 12:45 42.59057 -71.85347 15203 ft 381 kts 103°
2026-05-05 12:45 42.58616 -71.81808 14775 ft 379 kts 103°
2026-05-05 12:45 42.58124 -71.78311 14346 ft 376 kts 105°
2026-05-05 12:45 42.57559 -71.74851 13992 ft 375 kts 106°
2026-05-05 12:46 42.56993 -71.71405 13483 ft 374 kts 105°
2026-05-05 12:46 42.56440 -71.67986 13096 ft 367 kts 105°
2026-05-05 12:46 42.55905 -71.64645 12840 ft 357 kts 105°
2026-05-05 12:46 42.55384 -71.61380 12455 ft 353 kts 105°
2026-05-05 12:47 42.54869 -71.58173 12085 ft 352 kts 106°
2026-05-05 12:47 42.54250 -71.54990 11640 ft 346 kts 110°
2026-05-05 12:47 42.53581 -71.51910 11419 ft 335 kts 110°
2026-05-05 12:47 42.52935 -71.48914 11072 ft 329 kts 110°
2026-05-05 12:48 42.52306 -71.45955 10717 ft 324 kts 110°
2026-05-05 12:48 42.51693 -71.43048 10376 ft 319 kts 110°
2026-05-05 12:48 42.51090 -71.40176 10027 ft 316 kts 110°
2026-05-05 12:48 42.50488 -71.37310 9539 ft 316 kts 110°
2026-05-05 12:49 42.49901 -71.34458 9173 ft 312 kts 109°
2026-05-05 12:49 42.49337 -71.31626 8851 ft 311 kts 109°
2026-05-05 12:49 42.48776 -71.28802 8530 ft 310 kts 109°
2026-05-05 12:49 42.48215 -71.25990 8243 ft 308 kts 109°
2026-05-05 12:50 42.47669 -71.23243 8097 ft 296 kts 109°
2026-05-05 12:50 42.47144 -71.20607 7948 ft 285 kts 110°
2026-05-05 12:50 42.46635 -71.18047 7649 ft 279 kts 109°
2026-05-05 12:50 42.46449 -71.15433 7320 ft 281 kts 84°
2026-05-05 12:51 42.47048 -71.12949 7027 ft 277 kts 64°
2026-05-05 12:51 42.47902 -71.10622 6745 ft 275 kts 63°
2026-05-05 12:51 42.48773 -71.08325 6454 ft 274 kts 63°
2026-05-05 12:51 42.49886 -71.06261 6195 ft 271 kts 37°
2026-05-05 12:52 42.51500 -71.05077 6025 ft 262 kts 15°
2026-05-05 12:52 42.53221 -71.04240 5984 ft 263 kts 14°
2026-05-05 12:52 42.54953 -71.03420 5984 ft 264 kts 14°
2026-05-05 12:52 42.56681 -71.02587 5978 ft 264 kts 15°
2026-05-05 12:53 42.58398 -71.01751 5870 ft 258 kts 14°
2026-05-05 12:53 42.60064 -71.00919 5726 ft 253 kts 15°
2026-05-05 12:53 42.61705 -71.00069 5612 ft 252 kts 15°
2026-05-05 12:53 42.63344 -70.99218 5491 ft 253 kts 15°
2026-05-05 12:54 42.66560 -70.97305 5232 ft 256 kts 35°
2026-05-05 12:54 42.67880 -70.95631 5136 ft 279 kts 49°
2026-05-05 12:54 42.68714 -70.93247 5000 ft 275 kts 84°
2026-05-05 12:55 42.68503 -70.90836 4905 ft 246 kts 122°
2026-05-05 12:55 42.67441 -70.89280 4845 ft 211 kts 163°
2026-05-05 12:55 42.66079 -70.88853 4806 ft 197 kts 186°
2026-05-05 12:55 42.64730 -70.89001 4748 ft 191 kts 197°
2026-05-05 12:56 42.63477 -70.89300 4700 ft 176 kts 195°
2026-05-05 12:56 42.62262 -70.89443 4665 ft 175 kts 189°
2026-05-05 12:56 42.61040 -70.89470 4618 ft 176 kts 188°
2026-05-05 12:56 42.59824 -70.89535 4562 ft 174 kts 193°
2026-05-05 12:57 42.58652 -70.89844 4445 ft 169 kts 203°
2026-05-05 12:57 42.57539 -70.90326 4241 ft 166 kts 205°
2026-05-05 12:57 42.56825 -70.90656 4095 ft 162 kts 205°
2026-05-05 12:57 42.55773 -70.91159 3837 ft 158 kts 206°
2026-05-05 12:58 42.54749 -70.91657 3609 ft 154 kts 206°
2026-05-05 12:58 42.53754 -70.92137 3400 ft 149 kts 206°
2026-05-05 12:58 42.52792 -70.92605 3206 ft 146 kts 206°
2026-05-05 12:58 42.51838 -70.93070 3022 ft 145 kts 206°
2026-05-05 12:59 42.50886 -70.93531 2832 ft 145 kts 206°
2026-05-05 12:59 42.49943 -70.93991 2648 ft 142 kts 206°
2026-05-05 12:59 42.49026 -70.94436 2449 ft 137 kts 206°
2026-05-05 13:00 42.47330 -70.95328 2054 ft 127 kts 209°
2026-05-05 13:00 42.46492 -70.95734 1905 ft 129 kts 204°
2026-05-05 13:01 42.43956 -70.96926 1424 ft 127 kts 207°
2026-05-05 13:01 42.43123 -70.97339 1224 ft 127 kts 205°
2026-05-05 13:01 42.42292 -70.97740 1057 ft 128 kts 202°
2026-05-05 13:01 42.41438 -70.98132 892 ft 131 kts 204°
2026-05-05 13:02 42.40582 -70.98562 691 ft 132 kts 201°
2026-05-05 13:02 42.39692 -70.98970 533 ft 135 kts 200°
2026-05-05 13:02 42.38820 -70.99390 337 ft 129 kts 200°
2026-05-05 13:02 42.37968 -70.99801 201 ft 131 kts 200°
2026-05-05 13:03 42.37114 -71.00215 37 ft 129 kts 200°
2026-05-05 13:03 42.36420 -71.00549 31 ft 74 kts 199°
2026-05-05 13:03 42.36120 -71.00694 32 ft 33 kts 200°
2026-05-05 13:03 42.35951 -71.00863 32 ft 25 kts 230°
2026-05-05 13:04 42.35898 -71.00947 31 ft 11 kts 230°
2026-05-05 13:04 42.35846 -71.01035 31 ft 13 kts 239°
2026-05-05 13:04 42.35836 -71.01162 31 ft 15 kts 277°
2026-05-05 13:04 42.35852 -71.01306 31 ft 15 kts 278°
2026-05-05 13:05 42.35870 -71.01462 31 ft 18 kts 279°
2026-05-05 13:05 42.35878 -71.01526 31 ft 2 kts 282°
2026-05-05 13:05 42.35880 -71.01537 31 ft 0 kts 282°
2026-05-05 13:05 42.35881 -71.01541 31 ft 0 kts 284°
2026-05-05 13:06 42.35885 -71.01545 31 ft 1 kts 309°
2026-05-05 13:06 42.35890 -71.01547 31 ft 1 kts 336°
2026-05-05 13:06 42.35895 -71.01545 31 ft 1 kts
2026-05-05 13:06 42.35899 -71.01542 31 ft 2 kts 15°
2026-05-05 13:07 42.35936 -71.01525 31 ft 8 kts 21°
2026-05-05 13:07 42.36003 -71.01494 31 ft 12 kts 19°
2026-05-05 13:07 42.36095 -71.01450 31 ft 16 kts 19°
2026-05-05 13:07 42.36211 -71.01395 31 ft 19 kts 19°
2026-05-05 13:08 42.36321 -71.01341 31 ft 15 kts 20°
2026-05-05 13:08 42.36427 -71.01289 31 ft 16 kts 20°
2026-05-05 13:08 42.36543 -71.01232 31 ft 19 kts 20°
2026-05-05 13:08 42.36678 -71.01167 31 ft 18 kts 19°
2026-05-05 13:09 42.36704 -71.01155 31 ft 6 kts 19°
2026-05-05 13:09 42.36768 -71.01146 31 ft 11 kts 349°
2026-05-05 13:09 42.36839 -71.01214 31 ft 14 kts 316°
2026-05-05 13:09 42.36919 -71.01317 31 ft 17 kts 314°
2026-05-05 13:10 42.37012 -71.01444 31 ft 20 kts 315°
2026-05-05 13:10 42.37120 -71.01589 31 ft 23 kts 315°
2026-05-05 13:10 42.37214 -71.01715 31 ft 20 kts 315°
2026-05-05 13:10 42.37286 -71.01810 31 ft 11 kts 315°
2026-05-05 13:11 42.37299 -71.01862 31 ft 4 kts 248°
2026-05-05 13:11 42.37271 -71.01906 31 ft 8 kts 224°
2026-05-05 13:11 42.37238 -71.01977 31 ft 10 kts 254°
2026-05-05 13:11 42.37236 -71.02073 31 ft 9 kts 278°
2026-05-05 13:12 42.37212 -71.02161 31 ft 11 kts 229°
2026-05-05 13:12 42.37155 -71.02235 31 ft 11 kts 222°
2026-05-05 13:12 42.37099 -71.02267 31 ft 8 kts 174°
2026-05-05 13:12 42.37064 -71.02249 31 ft 2 kts 150°
2026-05-05 13:13 42.37050 -71.02237 31 ft 2 kts 146°
2026-05-05 13:13 42.37048 -71.02236 31 ft 0 kts 146°